Year,Month,Day,Hour,Minute,Value (Times are PST for insolation in W/m^2)
2012,06,18,00,00,0.00
2012,06,18,00,01,0.00
2012,06,18,00,02,0.00
2012,06,18,00,03,0.00
2012,06,18,00,04,0.00
2012,06,18,00,05,0.00
2012,06,18,00,06,0.00
2012,06,18,00,07,0.00
2012,06,18,00,08,0.00
2012,06,18,00,09,0.00
2012,06,18,00,10,0.00
2012,06,18,00,11,0.00
2012,06,18,00,12,0.00
2012,06,18,00,13,0.00
2012,06,18,00,14,0.00
2012,06,18,00,15,0.00
2012,06,18,00,16,0.00
2012,06,18,00,17,0.00
2012,06,18,00,18,0.00
2012,06,18,00,19,0.00
2012,06,18,00,20,0.00
2012,06,18,00,21,0.00
2012,06,18,00,22,0.00
2012,06,18,00,23,0.00
2012,06,18,00,24,0.00
2012,06,18,00,25,0.00
2012,06,18,00,26,0.00
2012,06,18,00,27,0.00
2012,06,18,00,28,0.00
2012,06,18,00,29,0.00
2012,06,18,00,30,0.00
2012,06,18,00,31,0.00
2012,06,18,00,32,0.00
2012,06,18,00,33,0.00
2012,06,18,00,34,0.00
2012,06,18,00,35,0.00
2012,06,18,00,36,0.00
2012,06,18,00,37,0.00
2012,06,18,00,38,0.00
2012,06,18,00,39,0.00
2012,06,18,00,40,0.00
2012,06,18,00,41,0.00
2012,06,18,00,42,0.00
2012,06,18,00,43,0.00
2012,06,18,00,44,0.00
2012,06,18,00,45,0.00
2012,06,18,00,46,0.00
2012,06,18,00,47,0.00
2012,06,18,00,48,0.00
2012,06,18,00,49,0.00
2012,06,18,00,50,0.00
2012,06,18,00,51,0.00
2012,06,18,00,52,0.00
2012,06,18,00,53,0.00
2012,06,18,00,54,0.00
2012,06,18,00,55,0.00
2012,06,18,00,56,0.00
2012,06,18,00,57,0.00
2012,06,18,00,58,0.00
2012,06,18,00,59,0.00
2012,06,18,01,00,0.00
2012,06,18,01,01,0.00
2012,06,18,01,02,0.00
2012,06,18,01,03,0.00
2012,06,18,01,04,0.00
2012,06,18,01,05,0.00
2012,06,18,01,06,0.00
2012,06,18,01,07,0.00
2012,06,18,01,08,0.00
2012,06,18,01,09,0.00
2012,06,18,01,10,0.00
2012,06,18,01,11,0.00
2012,06,18,01,12,0.00
2012,06,18,01,13,0.00
2012,06,18,01,14,0.00
2012,06,18,01,15,0.00
2012,06,18,01,16,0.00
2012,06,18,01,17,0.00
2012,06,18,01,18,0.00
2012,06,18,01,19,0.00
2012,06,18,01,20,0.00
2012,06,18,01,21,0.00
2012,06,18,01,22,0.00
2012,06,18,01,23,0.00
2012,06,18,01,24,0.00
2012,06,18,01,25,0.00
2012,06,18,01,26,0.00
2012,06,18,01,27,0.00
2012,06,18,01,28,0.00
2012,06,18,01,29,0.00
2012,06,18,01,30,0.00
2012,06,18,01,31,0.00
2012,06,18,01,32,0.00
2012,06,18,01,33,0.00
2012,06,18,01,34,0.00
2012,06,18,01,35,0.00
2012,06,18,01,36,0.00
2012,06,18,01,37,0.00
2012,06,18,01,38,0.00
2012,06,18,01,39,0.00
2012,06,18,01,40,0.00
2012,06,18,01,41,0.00
2012,06,18,01,42,0.00
2012,06,18,01,43,0.00
2012,06,18,01,44,0.00
2012,06,18,01,45,0.00
2012,06,18,01,46,0.00
2012,06,18,01,47,0.00
2012,06,18,01,48,0.00
2012,06,18,01,49,0.00
2012,06,18,01,50,0.00
2012,06,18,01,51,0.00
2012,06,18,01,52,0.00
2012,06,18,01,53,0.00
2012,06,18,01,54,0.00
2012,06,18,01,55,0.00
2012,06,18,01,56,0.00
2012,06,18,01,57,0.00
2012,06,18,01,58,0.00
2012,06,18,01,59,0.00
2012,06,18,02,00,0.00
2012,06,18,02,01,0.00
2012,06,18,02,02,0.00
2012,06,18,02,03,0.00
2012,06,18,02,04,0.00
2012,06,18,02,05,0.00
2012,06,18,02,06,0.00
2012,06,18,02,07,0.00
2012,06,18,02,08,0.00
2012,06,18,02,09,0.00
2012,06,18,02,10,0.00
2012,06,18,02,11,0.00
2012,06,18,02,12,0.00
2012,06,18,02,13,0.00
2012,06,18,02,14,0.00
2012,06,18,02,15,0.00
2012,06,18,02,16,0.00
2012,06,18,02,17,0.00
2012,06,18,02,18,0.00
2012,06,18,02,19,0.00
2012,06,18,02,20,0.00
2012,06,18,02,21,0.00
2012,06,18,02,22,0.00
2012,06,18,02,23,0.00
2012,06,18,02,24,0.00
2012,06,18,02,25,0.00
2012,06,18,02,26,0.00
2012,06,18,02,27,0.00
2012,06,18,02,28,0.00
2012,06,18,02,29,0.00
2012,06,18,02,30,0.00
2012,06,18,02,31,0.00
2012,06,18,02,32,0.00
2012,06,18,02,33,0.00
2012,06,18,02,34,0.00
2012,06,18,02,35,0.00
2012,06,18,02,36,0.00
2012,06,18,02,37,0.00
2012,06,18,02,38,0.00
2012,06,18,02,39,0.00
2012,06,18,02,40,0.00
2012,06,18,02,41,0.00
2012,06,18,02,42,0.00
2012,06,18,02,43,0.00
2012,06,18,02,44,0.00
2012,06,18,02,45,0.00
2012,06,18,02,46,0.00
2012,06,18,02,47,0.00
2012,06,18,02,48,0.00
2012,06,18,02,49,0.00
2012,06,18,02,50,0.00
2012,06,18,02,51,0.00
2012,06,18,02,52,0.00
2012,06,18,02,53,0.00
2012,06,18,02,54,0.00
2012,06,18,02,55,0.00
2012,06,18,02,56,0.00
2012,06,18,02,57,0.00
2012,06,18,02,58,0.00
2012,06,18,02,59,0.00
2012,06,18,03,00,0.00
2012,06,18,03,01,0.00
2012,06,18,03,02,0.00
2012,06,18,03,03,0.00
2012,06,18,03,04,0.00
2012,06,18,03,05,0.00
2012,06,18,03,06,0.00
2012,06,18,03,07,0.00
2012,06,18,03,08,0.00
2012,06,18,03,09,0.00
2012,06,18,03,10,0.00
2012,06,18,03,11,0.00
2012,06,18,03,12,0.00
2012,06,18,03,13,0.00
2012,06,18,03,14,0.00
2012,06,18,03,15,0.00
2012,06,18,03,16,0.00
2012,06,18,03,17,0.00
2012,06,18,03,18,0.00
2012,06,18,03,19,0.00
2012,06,18,03,20,0.00
2012,06,18,03,21,0.00
2012,06,18,03,22,0.00
2012,06,18,03,23,0.00
2012,06,18,03,24,0.00
2012,06,18,03,25,0.00
2012,06,18,03,26,0.00
2012,06,18,03,27,0.00
2012,06,18,03,28,0.00
2012,06,18,03,29,0.00
2012,06,18,03,30,0.00
2012,06,18,03,31,0.00
2012,06,18,03,32,0.00
2012,06,18,03,33,0.00
2012,06,18,03,34,0.00
2012,06,18,03,35,0.00
2012,06,18,03,36,0.00
2012,06,18,03,37,0.00
2012,06,18,03,38,0.00
2012,06,18,03,39,0.00
2012,06,18,03,40,0.00
2012,06,18,03,41,0.00
2012,06,18,03,42,0.00
2012,06,18,03,43,0.00
2012,06,18,03,44,0.00
2012,06,18,03,45,0.00
2012,06,18,03,46,0.00
2012,06,18,03,47,0.00
2012,06,18,03,48,0.00
2012,06,18,03,49,0.00
2012,06,18,03,50,0.00
2012,06,18,03,51,0.00
2012,06,18,03,52,0.00
2012,06,18,03,53,0.00
2012,06,18,03,54,0.00
2012,06,18,03,55,0.00
2012,06,18,03,56,0.00
2012,06,18,03,57,0.00
2012,06,18,03,58,0.00
2012,06,18,03,59,0.00
2012,06,18,04,00,0.00
2012,06,18,04,01,0.00
2012,06,18,04,02,0.00
2012,06,18,04,03,0.00
2012,06,18,04,04,0.00
2012,06,18,04,05,0.00
2012,06,18,04,06,0.00
2012,06,18,04,07,0.00
2012,06,18,04,08,0.00
2012,06,18,04,09,0.00
2012,06,18,04,10,0.00
2012,06,18,04,11,0.00
2012,06,18,04,12,0.00
2012,06,18,04,13,0.00
2012,06,18,04,14,0.00
2012,06,18,04,15,0.00
2012,06,18,04,16,0.00
2012,06,18,04,17,0.00
2012,06,18,04,18,0.00
2012,06,18,04,19,0.00
2012,06,18,04,20,0.00
2012,06,18,04,21,0.00
2012,06,18,04,22,0.00
2012,06,18,04,23,0.00
2012,06,18,04,24,0.00
2012,06,18,04,25,0.00
2012,06,18,04,26,0.00
2012,06,18,04,27,0.00
2012,06,18,04,28,0.00
2012,06,18,04,29,0.00
2012,06,18,04,30,0.00
2012,06,18,04,31,0.00
2012,06,18,04,32,0.00
2012,06,18,04,33,0.00
2012,06,18,04,34,0.00
2012,06,18,04,35,0.00
2012,06,18,04,36,0.00
2012,06,18,04,37,0.00
2012,06,18,04,38,0.00
2012,06,18,04,39,0.00
2012,06,18,04,40,0.00
2012,06,18,04,41,0.00
2012,06,18,04,42,0.00
2012,06,18,04,43,0.00
2012,06,18,04,44,0.00
2012,06,18,04,45,0.00
2012,06,18,04,46,0.00
2012,06,18,04,47,0.00
2012,06,18,04,48,0.00
2012,06,18,04,49,0.00
2012,06,18,04,50,0.00
2012,06,18,04,51,0.00
2012,06,18,04,52,0.00
2012,06,18,04,53,0.00
2012,06,18,04,54,0.00
2012,06,18,04,55,0.00
2012,06,18,04,56,0.00
2012,06,18,04,57,0.00
2012,06,18,04,58,0.00
2012,06,18,04,59,0.00
2012,06,18,05,00,0.00
2012,06,18,05,01,0.00
2012,06,18,05,02,0.00
2012,06,18,05,03,0.00
2012,06,18,05,04,0.00
2012,06,18,05,05,0.00
2012,06,18,05,06,0.00
2012,06,18,05,07,0.00
2012,06,18,05,08,0.00
2012,06,18,05,09,0.00
2012,06,18,05,10,0.00
2012,06,18,05,11,0.00
2012,06,18,05,12,0.00
2012,06,18,05,13,0.00
2012,06,18,05,14,0.00
2012,06,18,05,15,0.00
2012,06,18,05,16,0.00
2012,06,18,05,17,0.00
2012,06,18,05,18,0.00
2012,06,18,05,19,0.00
2012,06,18,05,20,0.00
2012,06,18,05,21,0.00
2012,06,18,05,22,0.00
2012,06,18,05,23,0.00
2012,06,18,05,24,0.00
2012,06,18,05,25,0.00
2012,06,18,05,26,0.00
2012,06,18,05,27,0.00
2012,06,18,05,28,0.00
2012,06,18,05,29,0.00
2012,06,18,05,30,0.00
2012,06,18,05,31,0.00
2012,06,18,05,32,5.00
2012,06,18,05,33,5.00
2012,06,18,05,34,5.00
2012,06,18,05,35,5.00
2012,06,18,05,36,5.00
2012,06,18,05,37,5.00
2012,06,18,05,38,5.00
2012,06,18,05,39,5.60
2012,06,18,05,40,7.00
2012,06,18,05,41,7.00
2012,06,18,05,42,7.00
2012,06,18,05,43,7.00
2012,06,18,05,44,7.00
2012,06,18,05,45,7.00
2012,06,18,05,46,7.00
2012,06,18,05,47,7.00
2012,06,18,05,48,7.00
2012,06,18,05,49,7.00
2012,06,18,05,50,7.00
2012,06,18,05,51,7.60
2012,06,18,05,52,9.00
2012,06,18,05,53,9.00
2012,06,18,05,54,9.00
2012,06,18,05,55,10.90
2012,06,18,05,56,12.50
2012,06,18,05,57,14.80
2012,06,18,05,58,17.10
2012,06,18,05,59,18.60
2012,06,18,06,00,19.00
2012,06,18,06,01,20.90
2012,06,18,06,02,21.00
2012,06,18,06,03,21.00
2012,06,18,06,04,21.00
2012,06,18,06,05,22.40
2012,06,18,06,06,24.60
2012,06,18,06,07,25.10
2012,06,18,06,08,26.00
2012,06,18,06,09,26.00
2012,06,18,06,10,26.00
2012,06,18,06,11,27.40
2012,06,18,06,12,28.00
2012,06,18,06,13,30.00
2012,06,18,06,14,30.60
2012,06,18,06,15,32.40
2012,06,18,06,16,34.10
2012,06,18,06,17,36.50
2012,06,18,06,18,38.70
2012,06,18,06,19,40.30
2012,06,18,06,20,42.00
2012,06,18,06,21,42.00
2012,06,18,06,22,42.00
2012,06,18,06,23,43.40
2012,06,18,06,24,44.00
2012,06,18,06,25,44.60
2012,06,18,06,26,48.30
2012,06,18,06,27,51.90
2012,06,18,06,28,56.00
2012,06,18,06,29,58.00
2012,06,18,06,30,58.20
2012,06,18,06,31,62.20
2012,06,18,06,32,64.30
2012,06,18,06,33,68.50
2012,06,18,06,34,72.60
2012,06,18,06,35,77.90
2012,06,18,06,36,84.10
2012,06,18,06,37,90.20
2012,06,18,06,38,91.70
2012,06,18,06,39,94.10
2012,06,18,06,40,95.00
2012,06,18,06,41,95.00
2012,06,18,06,42,93.00
2012,06,18,06,43,90.80
2012,06,18,06,44,90.00
2012,06,18,06,45,88.90
2012,06,18,06,46,88.00
2012,06,18,06,47,88.00
2012,06,18,06,48,90.30
2012,06,18,06,49,94.20
2012,06,18,06,50,98.80
2012,06,18,06,51,98.90
2012,06,18,06,52,95.90
2012,06,18,06,53,90.80
2012,06,18,06,54,83.50
2012,06,18,06,55,76.90
2012,06,18,06,56,69.80
2012,06,18,06,57,64.80
2012,06,18,06,58,60.80
2012,06,18,06,59,56.60
2012,06,18,07,00,53.80
2012,06,18,07,01,52.40
2012,06,18,07,02,51.00
2012,06,18,07,03,51.00
2012,06,18,07,04,51.00
2012,06,18,07,05,49.20
2012,06,18,07,06,48.60
2012,06,18,07,07,46.10
2012,06,18,07,08,44.00
2012,06,18,07,09,48.40
2012,06,18,07,10,61.50
2012,06,18,07,11,135.00
2012,06,18,07,12,164.60
2012,06,18,07,13,107.00
2012,06,18,07,14,182.00
2012,06,18,07,15,253.20
2012,06,18,07,16,204.60
2012,06,18,07,17,132.20
2012,06,18,07,18,161.80
2012,06,18,07,19,241.30
2012,06,18,07,20,277.50
2012,06,18,07,21,281.70
2012,06,18,07,22,288.60
2012,06,18,07,23,296.60
2012,06,18,07,24,283.80
2012,06,18,07,25,263.50
2012,06,18,07,26,284.40
2012,06,18,07,27,274.00
2012,06,18,07,28,336.40
2012,06,18,07,29,308.00
2012,06,18,07,30,253.20
2012,06,18,07,31,216.40
2012,06,18,07,32,213.20
2012,06,18,07,33,195.50
2012,06,18,07,34,163.00
2012,06,18,07,35,157.10
2012,06,18,07,36,165.90
2012,06,18,07,37,163.00
2012,06,18,07,38,161.20
2012,06,18,07,39,157.10
2012,06,18,07,40,156.00
2012,06,18,07,41,160.10
2012,06,18,07,42,184.50
2012,06,18,07,43,216.00
2012,06,18,07,44,331.20
2012,06,18,07,45,412.20
2012,06,18,07,46,363.90
2012,06,18,07,47,388.40
2012,06,18,07,48,395.80
2012,06,18,07,49,405.60
2012,06,18,07,50,424.40
2012,06,18,07,51,446.70
2012,06,18,07,52,457.10
2012,06,18,07,53,504.00
2012,06,18,07,54,419.70
2012,06,18,07,55,215.00
2012,06,18,07,56,203.80
2012,06,18,07,57,202.00
2012,06,18,07,58,209.00
2012,06,18,07,59,217.80
2012,06,18,08,00,225.60
2012,06,18,08,01,230.00
2012,06,18,08,02,227.90
2012,06,18,08,03,219.80
2012,06,18,08,04,206.70
2012,06,18,08,05,197.50
2012,06,18,08,06,192.60
2012,06,18,08,07,190.90
2012,06,18,08,08,190.00
2012,06,18,08,09,190.00
2012,06,18,08,10,192.20
2012,06,18,08,11,196.30
2012,06,18,08,12,202.40
2012,06,18,08,13,207.60
2012,06,18,08,14,211.70
2012,06,18,08,15,213.00
2012,06,18,08,16,213.90
2012,06,18,08,17,212.50
2012,06,18,08,18,211.00
2012,06,18,08,19,209.90
2012,06,18,08,20,206.90
2012,06,18,08,21,204.40
2012,06,18,08,22,200.10
2012,06,18,08,23,199.30
2012,06,18,08,24,200.80
2012,06,18,08,25,204.90
2012,06,18,08,26,211.20
2012,06,18,08,27,217.20
2012,06,18,08,28,225.60
2012,06,18,08,29,229.90
2012,06,18,08,30,233.80
2012,06,18,08,31,237.70
2012,06,18,08,32,239.00
2012,06,18,08,33,239.10
2012,06,18,08,34,241.50
2012,06,18,08,35,245.80
2012,06,18,08,36,265.60
2012,06,18,08,37,269.20
2012,06,18,08,38,266.80
2012,06,18,08,39,284.60
2012,06,18,08,40,312.20
2012,06,18,08,41,323.20
2012,06,18,08,42,314.30
2012,06,18,08,43,304.10
2012,06,18,08,44,299.80
2012,06,18,08,45,298.30
2012,06,18,08,46,291.20
2012,06,18,08,47,288.00
2012,06,18,08,48,288.00
2012,06,18,08,49,291.90
2012,06,18,08,50,303.50
2012,06,18,08,51,342.90
2012,06,18,08,52,421.10
2012,06,18,08,53,399.00
2012,06,18,08,54,348.40
2012,06,18,08,55,329.50
2012,06,18,08,56,317.80
2012,06,18,08,57,312.80
2012,06,18,08,58,312.20
2012,06,18,08,59,318.50
2012,06,18,09,00,326.40
2012,06,18,09,01,350.50
2012,06,18,09,02,385.50
2012,06,18,09,03,357.90
2012,06,18,09,04,364.20
2012,06,18,09,05,354.10
2012,06,18,09,06,340.50
2012,06,18,09,07,326.90
2012,06,18,09,08,316.70
2012,06,18,09,09,315.10
2012,06,18,09,10,318.70
2012,06,18,09,11,331.70
2012,06,18,09,12,358.60
2012,06,18,09,13,358.30
2012,06,18,09,14,341.00
2012,06,18,09,15,331.00
2012,06,18,09,16,327.00
2012,06,18,09,17,328.40
2012,06,18,09,18,338.20
2012,06,18,09,19,355.00
2012,06,18,09,20,361.00
2012,06,18,09,21,392.80
2012,06,18,09,22,370.60
2012,06,18,09,23,354.50
2012,06,18,09,24,346.80
2012,06,18,09,25,343.40
2012,06,18,09,26,345.00
2012,06,18,09,27,350.40
2012,06,18,09,28,364.20
2012,06,18,09,29,377.50
2012,06,18,09,30,345.00
2012,06,18,09,31,313.80
2012,06,18,09,32,293.40
2012,06,18,09,33,269.90
2012,06,18,09,34,257.60
2012,06,18,09,35,245.70
2012,06,18,09,36,241.00
2012,06,18,09,37,237.00
2012,06,18,09,38,267.00
2012,06,18,09,39,294.80
2012,06,18,09,40,378.00
2012,06,18,09,41,378.00
2012,06,18,09,42,378.00
2012,06,18,09,43,710.60
2012,06,18,09,44,773.00
2012,06,18,09,45,773.00
2012,06,18,09,46,655.80
2012,06,18,09,47,477.80
2012,06,18,09,48,458.30
2012,06,18,09,49,381.50
2012,06,18,09,50,369.00
2012,06,18,09,51,369.00
2012,06,18,09,52,599.40
2012,06,18,09,53,881.00
2012,06,18,09,54,881.00
2012,06,18,09,55,363.40
2012,06,18,09,56,240.80
2012,06,18,09,57,229.80
2012,06,18,09,58,221.90
2012,06,18,09,59,214.80
2012,06,18,10,00,207.80
2012,06,18,10,01,200.20
2012,06,18,10,02,190.70
2012,06,18,10,03,184.20
2012,06,18,10,04,178.60
2012,06,18,10,05,172.80
2012,06,18,10,06,168.00
2012,06,18,10,07,165.10
2012,06,18,10,08,165.00
2012,06,18,10,09,165.00
2012,06,18,10,10,167.00
2012,06,18,10,11,172.20
2012,06,18,10,12,181.20
2012,06,18,10,13,192.90
2012,06,18,10,14,205.00
2012,06,18,10,15,219.20
2012,06,18,10,16,233.30
2012,06,18,10,17,255.90
2012,06,18,10,18,268.40
2012,06,18,10,19,285.60
2012,06,18,10,20,301.50
2012,06,18,10,21,319.00
2012,06,18,10,22,335.10
2012,06,18,10,23,336.00
2012,06,18,10,24,338.50
2012,06,18,10,25,343.20
2012,06,18,10,26,347.10
2012,06,18,10,27,352.00
2012,06,18,10,28,348.10
2012,06,18,10,29,330.40
2012,06,18,10,30,310.20
2012,06,18,10,31,300.10
2012,06,18,10,32,293.50
2012,06,18,10,33,288.60
2012,06,18,10,34,283.50
2012,06,18,10,35,279.50
2012,06,18,10,36,276.30
2012,06,18,10,37,271.40
2012,06,18,10,38,268.40
2012,06,18,10,39,266.10
2012,06,18,10,40,265.00
2012,06,18,10,41,265.00
2012,06,18,10,42,265.00
2012,06,18,10,43,263.60
2012,06,18,10,44,262.00
2012,06,18,10,45,262.00
2012,06,18,10,46,262.00
2012,06,18,10,47,263.60
2012,06,18,10,48,264.00
2012,06,18,10,49,264.00
2012,06,18,10,50,265.10
2012,06,18,10,51,269.00
2012,06,18,10,52,274.20
2012,06,18,10,53,281.50
2012,06,18,10,54,290.10
2012,06,18,10,55,295.80
2012,06,18,10,56,298.20
2012,06,18,10,57,295.40
2012,06,18,10,58,292.70
2012,06,18,10,59,293.70
2012,06,18,11,00,290.90
2012,06,18,11,01,298.00
2012,06,18,11,02,303.80
2012,06,18,11,03,344.80
2012,06,18,11,04,378.00
2012,06,18,11,05,563.30
2012,06,18,11,06,598.00
2012,06,18,11,07,598.00
2012,06,18,11,08,598.00
2012,06,18,11,09,598.00
2012,06,18,11,10,598.00
2012,06,18,11,11,992.40
2012,06,18,11,12,1063.50
2012,06,18,11,13,1074.90
2012,06,18,11,14,1093.30
2012,06,18,11,15,1054.40
2012,06,18,11,16,1089.30
2012,06,18,11,17,1114.00
2012,06,18,11,18,1114.00
2012,06,18,11,19,1018.00
2012,06,18,11,20,810.00
2012,06,18,11,21,810.00
2012,06,18,11,22,810.00
2012,06,18,11,23,481.20
2012,06,18,11,24,434.00
2012,06,18,11,25,434.00
2012,06,18,11,26,742.40
2012,06,18,11,27,1091.00
2012,06,18,11,28,1041.00
2012,06,18,11,29,1023.00
2012,06,18,11,30,1023.00
2012,06,18,11,31,832.20
2012,06,18,11,32,478.00
2012,06,18,11,33,426.60
2012,06,18,11,34,329.50
2012,06,18,11,35,329.00
2012,06,18,11,36,330.00
2012,06,18,11,37,373.60
2012,06,18,11,38,439.00
2012,06,18,11,39,439.00
2012,06,18,11,40,689.40
2012,06,18,11,41,752.00
2012,06,18,11,42,752.00
2012,06,18,11,43,752.00
2012,06,18,11,44,908.80
2012,06,18,11,45,1043.20
2012,06,18,11,46,1054.00
2012,06,18,11,47,1047.00
2012,06,18,11,48,1057.60
2012,06,18,11,49,1018.60
2012,06,18,11,50,970.00
2012,06,18,11,51,1055.40
2012,06,18,11,52,1105.40
2012,06,18,11,53,1129.00
2012,06,18,11,54,1129.00
2012,06,18,11,55,1129.00
2012,06,18,11,56,1129.00
2012,06,18,11,57,865.90
2012,06,18,11,58,772.00
2012,06,18,11,59,772.00
2012,06,18,12,00,772.00
2012,06,18,12,01,772.00
2012,06,18,12,02,658.00
2012,06,18,12,03,582.00
2012,06,18,12,04,582.00
2012,06,18,12,05,582.00
2012,06,18,12,06,582.00
2012,06,18,12,07,582.00
2012,06,18,12,08,582.00
2012,06,18,12,09,582.00
2012,06,18,12,10,656.80
2012,06,18,12,11,629.40
2012,06,18,12,12,500.90
2012,06,18,12,13,518.60
2012,06,18,12,14,499.00
2012,06,18,12,15,475.80
2012,06,18,12,16,472.90
2012,06,18,12,17,470.50
2012,06,18,12,18,462.70
2012,06,18,12,19,444.90
2012,06,18,12,20,435.60
2012,06,18,12,21,434.00
2012,06,18,12,22,436.30
2012,06,18,12,23,443.50
2012,06,18,12,24,466.70
2012,06,18,12,25,500.40
2012,06,18,12,26,493.70
2012,06,18,12,27,492.40
2012,06,18,12,28,494.00
2012,06,18,12,29,494.00
2012,06,18,12,30,627.70
2012,06,18,12,31,791.00
2012,06,18,12,32,1062.60
2012,06,18,12,33,1179.00
2012,06,18,12,34,1179.00
2012,06,18,12,35,1179.00
2012,06,18,12,36,1179.00
2012,06,18,12,37,1182.60
2012,06,18,12,38,1185.00
2012,06,18,12,39,952.40
2012,06,18,12,40,925.00
2012,06,18,12,41,925.00
2012,06,18,12,42,925.00
2012,06,18,12,43,925.00
2012,06,18,12,44,1147.80
2012,06,18,12,45,1222.00
2012,06,18,12,46,1222.00
2012,06,18,12,47,1222.00
2012,06,18,12,48,1082.00
2012,06,18,12,49,942.00
2012,06,18,12,50,942.00
2012,06,18,12,51,942.00
2012,06,18,12,52,942.00
2012,06,18,12,53,942.00
2012,06,18,12,54,942.00
2012,06,18,12,55,942.00
2012,06,18,12,56,942.00
2012,06,18,12,57,1069.80
2012,06,18,12,58,1048.80
2012,06,18,12,59,1009.60
2012,06,18,13,00,1018.00
2012,06,18,13,01,1038.40
2012,06,18,13,02,1035.30
2012,06,18,13,03,1038.00
2012,06,18,13,04,1051.80
2012,06,18,13,05,1083.40
2012,06,18,13,06,1074.60
2012,06,18,13,07,1046.00
2012,06,18,13,08,1046.00
2012,06,18,13,09,455.00
2012,06,18,13,10,506.00
2012,06,18,13,11,781.40
2012,06,18,13,12,1069.40
2012,06,18,13,13,1102.60
2012,06,18,13,14,1132.00
2012,06,18,13,15,1132.00
2012,06,18,13,16,1132.00
2012,06,18,13,17,1132.00
2012,06,18,13,18,1143.60
2012,06,18,13,19,1153.00
2012,06,18,13,20,1153.00
2012,06,18,13,21,1153.00
2012,06,18,13,22,1153.00
2012,06,18,13,23,928.50
2012,06,18,13,24,679.00
2012,06,18,13,25,771.20
2012,06,18,13,26,734.60
2012,06,18,13,27,731.00
2012,06,18,13,28,731.00
2012,06,18,13,29,641.50
2012,06,18,13,30,570.20
2012,06,18,13,31,613.20
2012,06,18,13,32,653.40
2012,06,18,13,33,1250.00
2012,06,18,13,34,1250.00
2012,06,18,13,35,977.50
2012,06,18,13,36,705.00
2012,06,18,13,37,1045.00
2012,06,18,13,38,1176.60
2012,06,18,13,39,1179.00
2012,06,18,13,40,1170.20
2012,06,18,13,41,1145.90
2012,06,18,13,42,1126.90
2012,06,18,13,43,1040.50
2012,06,18,13,44,971.90
2012,06,18,13,45,498.00
2012,06,18,13,46,510.00
2012,06,18,13,47,429.70
2012,06,18,13,48,364.00
2012,06,18,13,49,600.00
2012,06,18,13,50,716.30
2012,06,18,13,51,1036.20
2012,06,18,13,52,1034.70
2012,06,18,13,53,1048.00
2012,06,18,13,54,1053.20
2012,06,18,13,55,1057.40
2012,06,18,13,56,1061.30
2012,06,18,13,57,1069.00
2012,06,18,13,58,1069.00
2012,06,18,13,59,760.40
2012,06,18,14,00,536.00
2012,06,18,14,01,536.00
2012,06,18,14,02,613.70
2012,06,18,14,03,942.70
2012,06,18,14,04,903.10
2012,06,18,14,05,893.40
2012,06,18,14,06,917.80
2012,06,18,14,07,922.70
2012,06,18,14,08,923.80
2012,06,18,14,09,916.50
2012,06,18,14,10,910.00
2012,06,18,14,11,909.00
2012,06,18,14,12,907.50
2012,06,18,14,13,911.00
2012,06,18,14,14,917.40
2012,06,18,14,15,930.00
2012,06,18,14,16,927.40
2012,06,18,14,17,921.10
2012,06,18,14,18,915.00
2012,06,18,14,19,910.80
2012,06,18,14,20,903.00
2012,06,18,14,21,900.80
2012,06,18,14,22,907.30
2012,06,18,14,23,910.00
2012,06,18,14,24,953.80
2012,06,18,14,25,965.00
2012,06,18,14,26,965.00
2012,06,18,14,27,957.80
2012,06,18,14,28,914.60
2012,06,18,14,29,891.00
2012,06,18,14,30,891.00
2012,06,18,14,31,888.80
2012,06,18,14,32,884.20
2012,06,18,14,33,875.80
2012,06,18,14,34,872.00
2012,06,18,14,35,873.40
2012,06,18,14,36,876.70
2012,06,18,14,37,880.70
2012,06,18,14,38,879.00
2012,06,18,14,39,880.30
2012,06,18,14,40,882.00
2012,06,18,14,41,885.00
2012,06,18,14,42,886.00
2012,06,18,14,43,883.50
2012,06,18,14,44,879.70
2012,06,18,14,45,873.00
2012,06,18,14,46,866.10
2012,06,18,14,47,861.20
2012,06,18,14,48,856.40
2012,06,18,14,49,855.40
2012,06,18,14,50,853.30
2012,06,18,14,51,853.50
2012,06,18,14,52,853.60
2012,06,18,14,53,855.50
2012,06,18,14,54,856.00
2012,06,18,14,55,855.60
2012,06,18,14,56,853.70
2012,06,18,14,57,852.00
2012,06,18,14,58,847.60
2012,06,18,14,59,846.00
2012,06,18,15,00,844.10
2012,06,18,15,01,843.60
2012,06,18,15,02,842.00
2012,06,18,15,03,839.20
2012,06,18,15,04,837.00
2012,06,18,15,05,835.40
2012,06,18,15,06,834.50
2012,06,18,15,07,830.30
2012,06,18,15,08,831.00
2012,06,18,15,09,830.50
2012,06,18,15,10,827.20
2012,06,18,15,11,826.00
2012,06,18,15,12,824.10
2012,06,18,15,13,823.70
2012,06,18,15,14,822.20
2012,06,18,15,15,821.00
2012,06,18,15,16,821.00
2012,06,18,15,17,817.60
2012,06,18,15,18,816.50
2012,06,18,15,19,814.00
2012,06,18,15,20,814.80
2012,06,18,15,21,813.80
2012,06,18,15,22,813.50
2012,06,18,15,23,812.10
2012,06,18,15,24,810.30
2012,06,18,15,25,812.60
2012,06,18,15,26,814.00
2012,06,18,15,27,814.00
2012,06,18,15,28,817.80
2012,06,18,15,29,825.70
2012,06,18,15,30,827.00
2012,06,18,15,31,821.60
2012,06,18,15,32,814.00
2012,06,18,15,33,812.20
2012,06,18,15,34,812.50
2012,06,18,15,35,815.70
2012,06,18,15,36,816.80
2012,06,18,15,37,812.80
2012,06,18,15,38,806.00
2012,06,18,15,39,805.00
2012,06,18,15,40,816.20
2012,06,18,15,41,811.40
2012,06,18,15,42,790.80
2012,06,18,15,43,783.20
2012,06,18,15,44,780.90
2012,06,18,15,45,780.00
2012,06,18,15,46,780.00
2012,06,18,15,47,780.00
2012,06,18,15,48,779.20
2012,06,18,15,49,776.30
2012,06,18,15,50,773.90
2012,06,18,15,51,772.30
2012,06,18,15,52,766.90
2012,06,18,15,53,764.20
2012,06,18,15,54,758.70
2012,06,18,15,55,756.30
2012,06,18,15,56,752.80
2012,06,18,15,57,749.80
2012,06,18,15,58,748.90
2012,06,18,15,59,746.70
2012,06,18,16,00,745.00
2012,06,18,16,01,745.80
2012,06,18,16,02,747.00
2012,06,18,16,03,750.00
2012,06,18,16,04,745.60
2012,06,18,16,05,741.00
2012,06,18,16,06,737.00
2012,06,18,16,07,735.20
2012,06,18,16,08,731.70
2012,06,18,16,09,731.00
2012,06,18,16,10,724.60
2012,06,18,16,11,721.80
2012,06,18,16,12,720.30
2012,06,18,16,13,718.00
2012,06,18,16,14,715.70
2012,06,18,16,15,715.00
2012,06,18,16,16,716.40
2012,06,18,16,17,712.40
2012,06,18,16,18,714.00
2012,06,18,16,19,713.00
2012,06,18,16,20,713.30
2012,06,18,16,21,708.90
2012,06,18,16,22,703.00
2012,06,18,16,23,700.00
2012,06,18,16,24,699.20
2012,06,18,16,25,699.10
2012,06,18,16,26,700.70
2012,06,18,16,27,695.10
2012,06,18,16,28,694.70
2012,06,18,16,29,702.10
2012,06,18,16,30,709.60
2012,06,18,16,31,687.50
2012,06,18,16,32,706.60
2012,06,18,16,33,724.00
2012,06,18,16,34,629.00
2012,06,18,16,35,624.00
2012,06,18,16,36,663.20
2012,06,18,16,37,706.80
2012,06,18,16,38,702.20
2012,06,18,16,39,695.30
2012,06,18,16,40,694.30
2012,06,18,16,41,693.00
2012,06,18,16,42,686.50
2012,06,18,16,43,690.60
2012,06,18,16,44,696.70
2012,06,18,16,45,698.80
2012,06,18,16,46,715.00
2012,06,18,16,47,715.00
2012,06,18,16,48,715.00
2012,06,18,16,49,715.00
2012,06,18,16,50,715.00
2012,06,18,16,51,715.00
2012,06,18,16,52,702.40
2012,06,18,16,53,651.30
2012,06,18,16,54,652.00
2012,06,18,16,55,654.00
2012,06,18,16,56,654.00
2012,06,18,16,57,653.80
2012,06,18,16,58,652.20
2012,06,18,16,59,659.60
2012,06,18,17,00,657.00
2012,06,18,17,01,301.20
2012,06,18,17,02,123.40
2012,06,18,17,03,148.00
2012,06,18,17,04,649.00
2012,06,18,17,05,621.30